GSAT0205 (GALILEO 9) (40889 NORAD) Tracking and Keplerian Element Data

This shows tracking and keplerian element data for the satellite.

Feedback or suggestion? Click here.




ElementValue
Catalog40889
NameGSAT0205 (GALILEO 9)
Epoch Orbit2767
Epoch Day52.61392154
Epoch Year2020
RAAN285.3153
Inclination56.2438
Eccentricity0.0005344
Argument of Perigee20.5999
Mean Anonmoly339.4942
Mean Motion1.70474811
Decay Rate8E-08
L11 40889U 15045A 20052.61392154 .00000008 00000-0 00000+0 0 9991
L22 40889 56.2438 285.3153 0005344 20.5999 339.4942 1.70474811 27675

Live tracking and technical data element details for GSAT0205 (GALILEO 9) (NORAD 40889). GSAT0205 (GALILEO 9) can be tracked NOW for your location showing map with azimuth and elevation plus other details from your city location.

Track the satellite on the map from your city or location and see movement details for azimuth, elevation, latitude, longitude, range, height, and movement on the map or in text.







IsCatalogInMostPopularTable: catalog: 40889, numindb: 418
Update: records affected: 1



GetName: 40889 GSAT0205 (GALILEO 9)

Hit Count: updated at: Sun, 23 Feb 2020 07:13:01 GMT